Weerawila Airport

Jump to: basic info | weather | frequencies | runways | comments

Related pages: nearby airports | nearby navaids | notams | map

Basic information (top)

Codes: WRZ VCCW
Location: lon 6.254490, lat 81.235199, elev 50 ft / 15 m msl
Status: small_airport
Scheduled airline service: yes
Links: Wikipedia Mobile

Weather (top)

Current conditions for Mattala Rajapaksa International Airport 7nm (13km) SW (rec'd 2014/11/01 00:10Z):

VCRI 010010Z 34002KT 7000 FEW016 23/22 Q1009 NOSIG

Airport forecast for Bandaranaike International Colombo Airport 98nm (181km) NW (rec'd 2014/10/30 00:00Z):

TAF VCBI 302140Z 3100/0106 VRB05KT 9999 SCT016 TX29/3108Z TN24/0100Z 
      TEMPO 3100/3106 5000 -TSRA/SHRA SCT010 BKN016 FEW020CB 
      BECMG 3105/3106 24010KT 
      TEMPO 3110/3118 6000 -TSRA/SHRA SCT010 BKN016 FEW020CB 
      BECMG 3112/3114 VRB05KT

Frequencies (top)

Verify before use: may be inaccurate or out of date.

TWR: 118.1 MHz (TWR)

Runways (top)

07/25: 4,000 x 93 ft (1,219 x 28 m) — paved — not lighted

Latest comments (top)

No comments yet for Weerawila Airport

More... (top)

See also NOTAMs and nearby airports and navaids, or visit the Weerawila Airport page at the main OurAirports website..